Location: Lake Sonoma
(38.7200°N, 123.0564°W)
Time: 18:52:51
(UTC-07:00)

Amateur Radio Satellites - All Passes

Search period start: 26 September 2016 18:22
Search period end: 27 September 2016 18:22
Location: Lake Sonoma, 38.7200°N, 123.0564°W

Satellite Date Start Highest point End Downlink Frequencies (MHz)
Time Altitude Azimuth
DOVE 4 26 Sep 18:26:09 18:30:28 29° 70° (ENE) 18:34:38 437.250
LilacSat-2 26 Sep 18:27:36 18:31:17 56° 75° (ENE) 18:34:59 437.200
HORYU 2 26 Sep 18:30:14 18:33:42 22° 265° (W) 18:37:11 437.375
Cubesat XI-IV 26 Sep 18:31:23 18:36:38 67° 73° (ENE) 18:41:55 437.490
CUTE-I 26 Sep 18:31:59 18:37:14 68° 74° (ENE) 18:42:32 437.470
AIST 1 26 Sep 18:32:58 18:34:26 12° 276° (W) 18:35:54
HO-68 26 Sep 18:33:31 18:37:46 17° 56° (NE) 18:42:01 435.675
GONETS M04 26 Sep 18:34:01 18:37:44 13° 59° (ENE) 18:41:25
O/OREOS (USA 219) 26 Sep 18:37:08 18:41:28 42° 254° (WSW) 18:45:47 437.305
STARS 26 Sep 18:50:42 18:53:58 21° 293° (WNW) 18:57:13 437.465
CUBESAT XI-V 26 Sep 18:52:36 18:57:07 48° 287° (WNW) 19:01:36 437.345
CANX-2 26 Sep 18:56:20 18:57:12 11° 63° (ENE) 18:58:04 2200.000
NOAA 18 26 Sep 19:01:15 19:06:43 79° 256° (WSW) 19:12:12 137.9125
Cosmos 2499 26 Sep 19:15:28 19:20:42 20° 68° (ENE) 19:26:08 435.465 / 435.565
DANDE 26 Sep 19:22:44 19:25:15 14° 77° (ENE) 19:28:03 436.750
STRAND 1 26 Sep 19:23:14 19:26:16 16° 92° (E) 19:29:18 437.568
GOMX 1 26 Sep 19:35:20 19:39:55 27° 265° (W) 19:44:21 467.674
BRITE-PL 26 Sep 19:41:44 19:44:01 12° 272° (W) 19:46:17 437.365/2234.400
CUSAT 1 26 Sep 19:42:52 19:48:43 68° 94° (E) 19:56:05 437.405
CINEMA 3 26 Sep 19:47:54 19:52:18 51° 74° (ENE) 19:56:32 145.822/145.860
RS-15 26 Sep 19:51:42 20:02:21 46° 108° (ESE) 20:13:30 29.354- 29.394
NOAA 15 26 Sep 20:02:57 20:05:42 14° 269° (W) 20:08:28 137.62
DOVE 4 26 Sep 20:03:41 20:08:04 29° 264° (W) 20:12:18 437.250
COMPASS 1 26 Sep 20:05:55 20:09:24 26° 70° (ENE) 20:12:54 437.405
Cubesat XI-IV 26 Sep 20:14:28 20:17:09 14° 269° (W) 20:19:51 437.490
CUTE-I 26 Sep 20:15:11 20:17:45 14° 269° (W) 20:20:19 437.470
HO-68 26 Sep 20:17:18 20:24:30 89° 74° (ENE) 20:31:43 435.675
ZACube-1 26 Sep 20:23:46 20:25:37 13° 65° (ENE) 20:27:28 437.345
Oscar 11 26 Sep 20:24:01 20:26:07 13° 65° (ENE) 20:28:13 145.826/435.025
CUTE 1.7 + AOD 2 26 Sep 20:27:15 20:31:28 80° 258° (WSW) 20:35:44 437.475
GONETS M04 26 Sep 20:27:29 20:36:19 71° 81° (E) 20:45:01
CANX-2 26 Sep 20:28:16 20:32:27 66° 258° (WSW) 20:36:42 2200.000
SEEDS 26 Sep 20:31:09 20:35:20 78° 75° (ENE) 20:39:34 437.485
AO-85 26 Sep 20:52:21 20:56:29 24° 112° (ESE) 21:00:28 145.980
ISS 26 Sep 20:54:32 20:57:41 50° 137° (SE) 21:00:52 145.825
DELFI C3 26 Sep 20:56:52 20:57:53 11° 64° (ENE) 20:58:54 145.870
AAUSAT CUBESAT 2 26 Sep 20:57:31 21:01:40 83° 78° (ENE) 21:05:52 437.432
STRAND 1 26 Sep 21:00:44 21:05:47 58° 287° (WNW) 21:10:49 437.568
DANDE 26 Sep 21:01:53 21:06:41 69° 282° (WNW) 21:13:12 436.750
CUBEBUG 2 26 Sep 21:04:15 21:08:29 84° 260° (W) 21:12:39 437.445
Cosmos 2499 26 Sep 21:06:55 21:14:27 76° 266° (W) 21:22:36 435.465 / 435.565
FUNcube-1 26 Sep 21:16:09 21:20:06 46° 74° (ENE) 21:24:05 145.935
UWE-3 26 Sep 21:25:04 21:29:15 75° 258° (WSW) 21:33:24 435.000/436.395/437.385
CUSAT 1 26 Sep 21:26:55 21:31:37 21° 297° (WNW) 21:37:00 437.405
CINEMA 3 26 Sep 21:27:32 21:29:40 13° 268° (W) 21:31:45 145.822/145.860
COMPASS 1 26 Sep 21:41:32 21:44:53 23° 265° (W) 21:48:15 437.405
ZACube-1 26 Sep 21:57:26 22:01:28 49° 260° (W) 22:05:30 437.345
Oscar 11 26 Sep 21:57:35 22:01:47 52° 260° (W) 22:06:00 145.826/435.025
RS-15 26 Sep 22:03:14 22:14:35 55° 311° (NW) 22:26:33 29.354- 29.394
HO-68 26 Sep 22:09:20 22:13:01 15° 270° (W) 22:16:43 435.675
JUGNU 26 Sep 22:24:09 22:25:47 11° 176° (S) 22:27:25 437.505
GONETS M04 26 Sep 22:25:52 22:32:11 23° 280° (W) 22:38:29
PRISM 26 Sep 22:26:52 22:30:58 61° 285° (WNW) 22:35:00 437.425
DELFI C3 26 Sep 22:28:16 22:32:11 57° 260° (W) 22:36:10 145.870
HUMSAT D 26 Sep 22:28:18 22:32:19 64° 75° (ENE) 22:36:23 437.325/437.525
AO-85 26 Sep 22:31:46 22:36:45 44° 306° (NW) 22:41:26 145.980
ISS 26 Sep 22:31:47 22:34:21 21° 334° (NNW) 22:36:57 145.825
UNISAT 6 26 Sep 22:31:55 22:34:56 18° 94° (E) 22:37:59 437.425
ESTCUBE 1 26 Sep 22:50:24 22:53:33 19° 66° (ENE) 22:56:42 437.505/2401.250
FUNcube-1 26 Sep 22:54:52 22:56:36 12° 268° (W) 22:58:21 145.935
VELOX 1 26 Sep 22:57:17 22:58:08 10° 62° (ENE) 22:58:57 145.980
CUBEBUG 1 26 Sep 23:02:36 23:05:14 16° 65° (ENE) 23:07:52 437.445
Cosmos 2499 26 Sep 23:04:15 23:06:21 11° 282° (WNW) 23:08:29 435.465 / 435.565
ANTELSAT 26 Sep 23:06:24 23:10:37 43° 99° (E) 23:14:53 437.575/2403.000
AUBIESAT-1 26 Sep 23:21:48 23:24:15 16° 63° (ENE) 23:26:37 437.475
TIGRISAT 26 Sep 23:27:09 23:31:32 70° 101° (ESE) 23:36:01 435.000
SO-50 26 Sep 23:44:34 23:47:35 17° 44° (NE) 23:50:32 436.795
AISAT 26 Sep 23:46:09 23:50:16 38° 71° (ENE) 23:54:24 437.250
SPROUT 26 Sep 23:48:19 23:51:23 20° 67° (ENE) 23:54:28 437.525
M-CUBED/EXP-1 PRIME 26 Sep 23:56:23 00:00:28 49° 69° (ENE) 00:04:15 437.505
DUCHIFAT 1 26 Sep 23:59:26 00:02:14 17° 94° (E) 00:05:01 145.980
UKube-1 26 Sep 23:59:41 00:03:11 24° 68° (ENE) 00:06:41 .
QB50P1 27 Sep 00:00:00 00:03:09 20° 95° (E) 00:06:18 145.935-145.965
UNISAT 6 27 Sep 00:07:41 00:11:45 38° 288° (WNW) 00:15:54 437.425
POPSAT HIP 1 27 Sep 00:13:00 00:16:39 28° 96° (E) 00:20:18 437.405
JUGNU 27 Sep 00:13:04 00:13:51 10° 187° (S) 00:14:39 437.505
50 SAT 27 Sep 00:17:48 00:21:25 80° 74° (ENE) 00:25:05 437.505
RS-15 27 Sep 00:22:04 00:30:50 22° 341° (NNW) 00:39:50 29.354- 29.394
DX 1 27 Sep 00:25:12 00:29:31 62° 75° (ENE) 00:33:51 434.975-435.025
ESTCUBE 1 27 Sep 00:25:47 00:30:02 40° 262° (W) 00:34:19 437.505/2401.250
VELOX 1 27 Sep 00:29:30 00:33:57 74° 258° (WSW) 00:38:24 145.980
NANOSAT C BR1 27 Sep 00:29:51 00:33:52 42° 99° (E) 00:37:51 145.865
JAS-2 27 Sep 00:31:40 00:39:10 45° 97° (E) 00:46:14 435.910
CUBEBUG 1 27 Sep 00:36:51 00:41:07 46° 261° (W) 00:45:23 437.445
ANTELSAT 27 Sep 00:44:10 00:47:00 17° 294° (WNW) 00:49:51 437.575/2403.000
QB50P2 27 Sep 00:52:04 00:56:18 89° 297° (WNW) 01:00:32 145.880/145.840
POLYITAN 1 27 Sep 00:54:17 00:58:31 89° 292° (WNW) 01:02:45 437.675
AUBIESAT-1 27 Sep 00:54:33 00:58:27 39° 256° (WSW) 01:02:07 437.475
SRMSAT 27 Sep 01:06:31 01:08:21 11° 178° (S) 01:10:11 437.500
TIGRISAT 27 Sep 01:06:36 01:07:40 11° 297° (WNW) 01:08:42 435.000
TISAT 1 27 Sep 01:11:47 01:15:32 32° 71° (ENE) 01:19:16 437.305
SPROUT 27 Sep 01:23:14 01:27:05 33° 262° (W) 01:30:58 437.525
AISAT 27 Sep 01:23:45 01:26:51 18° 266° (W) 01:29:57 437.250
SO-50 27 Sep 01:23:58 01:28:28 61° 242° (WSW) 01:32:51 436.795
BEESAT 27 Sep 01:28:33 01:29:39 11° 61° (ENE) 01:30:45 436.000
BEESAT 3 27 Sep 01:32:16 01:36:07 62° 118° (ESE) 01:40:00 437.485
M-CUBED/EXP-1 PRIME 27 Sep 01:33:15 01:35:05 13° 261° (W) 01:36:53 437.505
DUCHIFAT 1 27 Sep 01:34:12 01:38:01 35° 288° (WNW) 01:41:49 145.980
QB50P1 27 Sep 01:35:15 01:38:56 30° 289° (WNW) 01:42:37 145.935-145.965
UKube-1 27 Sep 01:35:23 01:39:05 27° 263° (W) 01:42:48 .
BUGSAT 1 27 Sep 01:40:41 01:44:42 75° 283° (WNW) 01:48:43 437.445
ISS 27 Sep 01:48:18 01:49:35 12° 15° (NNE) 01:50:51 145.825
POPSAT HIP 1 27 Sep 01:49:01 01:52:17 22° 292° (WNW) 01:55:33 437.405
DX 1 27 Sep 02:05:02 02:06:04 11° 269° (W) 02:07:07 434.975-435.025
NANOSAT C BR1 27 Sep 02:06:45 02:09:13 15° 294° (WNW) 02:11:40 145.865
Cosmos 2491 27 Sep 02:10:14 02:18:44 48° 76° (ENE) 02:27:09 435.465 / 435.565
JAS-2 27 Sep 02:16:48 02:23:56 39° 294° (WNW) 02:30:48 435.910
BEESAT 2 27 Sep 02:25:35 02:29:30 67° 302° (WNW) 02:33:28 435.950
Oscar 19 27 Sep 02:26:55 02:32:00 56° 101° (E) 02:37:02 437.125/150
ITUPSAT 1 27 Sep 02:35:23 02:39:59 52° 72° (ENE) 02:44:37 437.325
RS-15 27 Sep 02:40:52 02:49:48 22° 18° (NNE) 02:58:43 29.354- 29.394
TISAT 1 27 Sep 02:48:13 02:51:13 19° 266° (W) 02:54:12 437.305
SWISSCUBE 27 Sep 02:48:52 02:53:36 82° 75° (ENE) 02:58:23 437.505
MOZHAYETS 4 27 Sep 03:01:50 03:04:36 16° 65° (ENE) 03:07:21
BEESAT 27 Sep 03:01:58 03:06:42 81° 255° (WSW) 03:11:30 436.000
YUBILEINY 27 Sep 03:08:15 03:16:34 49° 89° (E) 03:24:52 435.215
BEESAT 3 27 Sep 03:12:15 03:14:10 13° 316° (NW) 03:16:04 437.485
Gurwin Techsat 1B 27 Sep 03:16:41 03:22:02 79° 103° (ESE) 03:27:21 435.225
ITAMSAT 1 27 Sep 03:18:39 03:22:38 22° 94° (E) 03:26:35 435.822/435.867
ISS 27 Sep 03:23:37 03:26:46 41° 33° (NNE) 03:29:55 145.825
KKS-1 27 Sep 03:33:23 03:36:48 22° 67° (ENE) 03:40:14 437.445
AO-7 27 Sep 04:01:09 04:08:22 32° 97° (E) 04:15:32 29.400- 29.500
Cosmos 2491 27 Sep 04:07:32 04:15:15 35° 275° (W) 04:22:55 435.465 / 435.565
Oscar 19 27 Sep 04:07:32 04:10:49 17° 297° (WNW) 04:14:05 437.125/150
STARS 27 Sep 04:09:24 04:13:00 25° 68° (ENE) 04:16:37 437.465
ITUPSAT 1 27 Sep 04:15:21 04:18:06 15° 268° (W) 04:20:51 437.325
CUBESAT XI-V 27 Sep 04:19:22 04:21:48 14° 64° (ENE) 04:24:15 437.345
Cosmos 2504 27 Sep 04:36:32 04:43:57 69° 93° (E) 04:51:05 435.465 / 435.565
MOZHAYETS 4 27 Sep 04:36:55 04:41:19 49° 261° (W) 04:45:47
AIST 2 27 Sep 04:39:51 04:43:56 74° 303° (WNW) 04:48:04 435.215
PCSat 27 Sep 04:53:54 04:59:11 60° 114° (ESE) 05:04:32 145.827
RS-15 27 Sep 04:54:09 05:06:13 53° 49° (NE) 05:17:59 29.354- 29.394
ITAMSAT 1 27 Sep 04:57:19 05:02:14 43° 290° (WNW) 05:07:09 435.822/435.867
Gurwin Techsat 1B 27 Sep 04:58:51 05:01:16 13° 300° (WNW) 05:03:40 435.225
ISS 27 Sep 05:00:38 05:03:03 19° 229° (SW) 05:05:28 145.825
YUBILEINY 27 Sep 05:05:45 05:13:32 35° 288° (WNW) 05:21:22 435.215
KKS-1 27 Sep 05:09:11 05:13:10 32° 262° (W) 05:17:10 437.445
AIST 1 27 Sep 05:21:02 05:24:56 32° 91° (E) 05:28:51
AO-85 27 Sep 05:26:12 05:28:08 13° 42° (NE) 05:30:01 145.980
STARS 27 Sep 05:45:32 05:49:15 27° 264° (W) 05:52:58 437.465
AO-7 27 Sep 05:53:24 06:01:23 54° 295° (WNW) 06:09:22 29.400- 29.500
CUBESAT XI-V 27 Sep 05:54:01 05:58:39 59° 260° (W) 06:03:20 437.345
DANDE 27 Sep 05:59:29 06:05:08 19° 63° (ENE) 06:10:37 436.750
BRITE-PL 27 Sep 06:07:00 06:11:07 28° 94° (E) 06:14:57 437.365/2234.400
CUSAT 1 27 Sep 06:18:57 06:26:29 50° 74° (ENE) 06:32:48 437.405
HORYU 2 27 Sep 06:21:06 06:25:34 73° 102° (ESE) 06:30:01 437.375
Cosmos 2504 27 Sep 06:32:49 06:37:55 20° 292° (WNW) 06:42:55 435.465 / 435.565
NOAA 15 27 Sep 06:37:18 06:41:46 27° 96° (E) 06:46:12 137.62
STRAND 1 27 Sep 06:37:45 06:41:27 21° 65° (ENE) 06:45:10 437.568
PCSat 27 Sep 06:38:59 06:42:59 21° 312° (NW) 06:47:02 145.827
Cubesat XI-IV 27 Sep 06:50:20 06:54:59 29° 96° (E) 06:59:37 437.490
CUTE-I 27 Sep 06:50:44 06:55:24 30° 96° (E) 07:00:04 437.470
AIST 1 27 Sep 06:59:23 07:02:35 19° 286° (WNW) 07:05:47
AO-85 27 Sep 07:05:01 07:09:05 68° 242° (WSW) 07:12:56 145.980
RS-15 27 Sep 07:07:05 07:18:40 49° 251° (WSW) 07:29:56 29.354- 29.394
O/OREOS (USA 219) 27 Sep 07:09:19 07:13:02 25° 102° (ESE) 07:16:47 437.305
NOAA 18 27 Sep 07:24:41 07:29:59 49° 100° (E) 07:35:16 137.9125
GONETS M04 27 Sep 07:35:05 07:39:34 15° 76° (ENE) 07:44:04
LilacSat-2 27 Sep 07:36:08 07:39:58 76° 284° (WNW) 07:43:48 437.200
GOMX 1 27 Sep 07:38:14 07:42:38 71° 284° (WNW) 07:46:49 467.674
DANDE 27 Sep 07:40:36 07:49:04 87° 81° (E) 07:56:53 436.750
BRITE-PL 27 Sep 07:45:31 07:49:30 26° 293° (WNW) 07:53:14 437.365/2234.400
CINEMA 3 27 Sep 07:45:35 07:47:13 12° 92° (E) 07:48:51 145.822/145.860
HO-68 27 Sep 07:48:16 07:52:49 18° 91° (E) 07:57:19 435.675
AO-7 27 Sep 07:50:07 07:52:18 11° 315° (NW) 07:54:28 29.400- 29.500
Cosmos 2499 27 Sep 07:54:22 07:57:22 13° 79° (E) 08:00:20 435.465 / 435.565
HORYU 2 27 Sep 08:00:31 08:01:29 11° 298° (WNW) 08:02:29 437.375
CUSAT 1 27 Sep 08:01:37 08:08:01 30° 275° (W) 08:13:33 437.405
DOVE 4 27 Sep 08:03:24 08:07:37 88° 102° (ESE) 08:11:45 437.250
CUTE 1.7 + AOD 2 27 Sep 08:14:15 08:17:23 19° 94° (E) 08:20:30 437.475
CANX-2 27 Sep 08:15:05 08:18:33 23° 95° (E) 08:21:59 2200.000
STRAND 1 27 Sep 08:15:25 08:20:17 45° 261° (W) 08:25:11 437.568
NOAA 15 27 Sep 08:16:46 08:21:33 35° 291° (WNW) 08:26:18 137.62
SEEDS 27 Sep 08:17:46 08:20:07 14° 92° (E) 08:22:27 437.485
Cubesat XI-IV 27 Sep 08:30:15 08:35:00 33° 292° (WNW) 08:39:45 437.490
CUTE-I 27 Sep 08:30:40 08:35:24 33° 292° (WNW) 08:40:07 437.470
AAUSAT CUBESAT 2 27 Sep 08:42:33 08:44:50 14° 92° (E) 08:47:06 437.432
O/OREOS (USA 219) 27 Sep 08:48:20 08:52:18 29° 299° (WNW) 08:56:19 437.305
CUBEBUG 2 27 Sep 08:56:37 08:59:56 21° 95° (E) 09:03:17 437.445
NOAA 18 27 Sep 09:06:12 09:10:16 22° 296° (WNW) 09:14:20 137.9125
FUNcube-1 27 Sep 09:08:23 09:08:36 10° 90° (E) 09:08:51 145.935
PRISM 27 Sep 09:14:21 09:18:30 77° 76° (ENE) 09:22:41 437.425
UWE-3 27 Sep 09:16:07 09:19:35 23° 95° (E) 09:23:06 435.000/436.395/437.385
CINEMA 3 27 Sep 09:20:35 09:24:37 49° 286° (WNW) 09:28:44 145.822/145.860
COMPASS 1 27 Sep 09:24:34 09:28:45 59° 100° (E) 09:32:53 437.405
DANDE 27 Sep 09:25:19 09:30:43 19° 280° (W) 09:35:56 436.750
GONETS M04 27 Sep 09:26:07 09:34:57 85° 95° (E) 09:43:51
UNISAT 6 27 Sep 09:30:45 09:32:50 13° 65° (ENE) 09:34:55 437.425
HO-68 27 Sep 09:34:01 09:41:10 78° 288° (WNW) 09:48:18 435.675
Cosmos 2499 27 Sep 09:42:10 09:49:24 87° 278° (W) 09:56:30 435.465 / 435.565
Oscar 11 27 Sep 09:46:13 09:50:04 30° 96° (E) 09:53:54 145.826/435.025
ZACube-1 27 Sep 09:46:44 09:50:38 32° 97° (E) 09:54:35 437.345
CUTE 1.7 + AOD 2 27 Sep 09:49:25 09:53:17 33° 289° (WNW) 09:57:07 437.475
CANX-2 27 Sep 09:50:41 09:54:21 28° 290° (WNW) 09:58:01 2200.000
BEESAT 3 27 Sep 09:50:53 09:54:12 24° 50° (NE) 09:57:29 437.485
SEEDS 27 Sep 09:51:57 09:56:01 43° 287° (WNW) 10:00:02 437.485
ANTELSAT 27 Sep 10:04:15 10:08:00 31° 71° (ENE) 10:11:45 437.575/2403.000
DELFI C3 27 Sep 10:07:46 10:10:41 19° 94° (E) 10:13:36 145.870
HUMSAT D 27 Sep 10:14:55 10:16:27 12° 91° (E) 10:17:58 437.325/437.525
AAUSAT CUBESAT 2 27 Sep 10:16:31 10:20:30 42° 287° (WNW) 10:24:27 437.432
TIGRISAT 27 Sep 10:24:33 10:28:40 49° 74° (ENE) 10:32:47 435.000
CUBEBUG 2 27 Sep 10:32:48 10:36:33 30° 289° (WNW) 10:40:23 437.445
FUNcube-1 27 Sep 10:40:55 10:45:12 65° 285° (WNW) 10:49:34 145.935
JAS-2 27 Sep 10:44:24 10:48:26 17° 56° (NE) 10:52:42 435.910
BEESAT 2 27 Sep 10:44:42 10:48:34 44° 55° (NE) 10:52:24 435.950
DUCHIFAT 1 27 Sep 10:51:39 10:53:02 11° 64° (ENE) 10:54:24 145.980
QB50P1 27 Sep 10:52:17 10:54:25 14° 65° (ENE) 10:56:32 145.935-145.965
UWE-3 27 Sep 10:52:18 10:56:01 28° 289° (WNW) 10:59:47 435.000/436.395/437.385
COMPASS 1 27 Sep 11:02:18 11:03:46 12° 296° (WNW) 11:05:14 437.405
POPSAT HIP 1 27 Sep 11:04:51 11:07:46 19° 67° (ENE) 11:10:41 437.405
UNISAT 6 27 Sep 11:04:57 11:09:07 50° 260° (W) 11:13:16 437.425
NANOSAT C BR1 27 Sep 11:20:53 11:24:24 26° 70° (ENE) 11:27:55 145.865
Oscar 11 27 Sep 11:22:38 11:26:01 22° 292° (WNW) 11:29:24 145.826/435.025
ZACube-1 27 Sep 11:23:27 11:26:43 21° 291° (WNW) 11:30:02 437.345
PHONESAT 2.4 27 Sep 11:23:45 11:26:29 36° 156° (SSE) 11:29:14 2401.200-2431.200
HO-68 27 Sep 11:24:14 11:27:44 14° 306° (NW) 11:31:15 435.675
GONETS M04 27 Sep 11:26:54 11:32:53 20° 296° (WNW) 11:38:55
BEESAT 3 27 Sep 11:28:24 11:31:49 27° 247° (WSW) 11:35:11 437.485
Cosmos 2499 27 Sep 11:40:30 11:43:34 13° 296° (WNW) 11:46:38 435.465 / 435.565
ANTELSAT 27 Sep 11:41:35 11:44:45 20° 266° (W) 11:47:55 437.575/2403.000
DELFI C3 27 Sep 11:42:03 11:45:31 29° 289° (WNW) 11:48:59 145.870
QB50P2 27 Sep 11:43:04 11:47:11 55° 74° (ENE) 11:51:18 145.880/145.840
POLYITAN 1 27 Sep 11:45:18 11:49:24 55° 74° (ENE) 11:53:31 437.675
HUMSAT D 27 Sep 11:48:11 11:52:21 54° 286° (WNW) 11:56:32 437.325/437.525
TIGRISAT 27 Sep 12:03:49 12:05:37 12° 268° (W) 12:07:26 435.000
DX 1 27 Sep 12:17:01 12:18:27 11° 91° (E) 12:19:52 434.975-435.025
ESTCUBE 1 27 Sep 12:19:18 12:23:40 45° 99° (E) 12:27:59 437.505/2401.250
VELOX 1 27 Sep 12:21:34 12:25:01 22° 95° (E) 12:28:26 145.980
BEESAT 2 27 Sep 12:23:44 12:26:00 15° 251° (WSW) 12:28:14 435.950
DUCHIFAT 1 27 Sep 12:24:04 12:28:12 58° 259° (W) 12:32:20 145.980
QB50P1 27 Sep 12:25:41 12:29:45 48° 260° (W) 12:33:50 145.935-145.965
JAS-2 27 Sep 12:25:56 12:32:17 88° 250° (WSW) 12:39:33 435.910
CUBEBUG 1 27 Sep 12:26:49 12:30:45 33° 97° (E) 12:34:39 437.445
BUGSAT 1 27 Sep 12:28:41 12:32:44 60° 75° (ENE) 12:36:46 437.445
POPSAT HIP 1 27 Sep 12:39:28 12:43:17 34° 262° (W) 12:47:08 437.405
NANOSAT C BR1 27 Sep 12:56:43 13:00:04 23° 265° (W) 13:03:25 145.865
PHONESAT 2.4 27 Sep 12:59:36 13:02:32 67° 350° (N) 13:05:29 2401.200-2431.200
Gurwin Techsat 1B 27 Sep 12:59:52 13:02:28 14° 61° (ENE) 13:05:04 435.225
AIST 2 27 Sep 13:02:21 13:06:25 46° 55° (NE) 13:10:27 435.215
SPROUT 27 Sep 13:09:57 13:14:00 42° 99° (E) 13:18:02 437.525
M-CUBED/EXP-1 PRIME 27 Sep 13:11:11 13:14:15 37° 104° (ESE) 13:17:18 437.505
AISAT 27 Sep 13:13:30 13:17:54 88° 289° (WNW) 13:22:17 437.250
50 SAT 27 Sep 13:20:06 13:23:45 67° 285° (WNW) 13:27:22 437.505
YUBILEINY 27 Sep 13:20:49 13:27:13 22° 66° (ENE) 13:33:34 435.215
QB50P2 27 Sep 13:22:05 13:23:18 11° 269° (W) 13:24:31 145.880/145.840
UKube-1 27 Sep 13:22:59 13:27:12 51° 100° (E) 13:31:23 .
POLYITAN 1 27 Sep 13:24:22 13:25:31 11° 269° (W) 13:26:40 437.675
Oscar 19 27 Sep 13:42:13 13:47:23 72° 75° (ENE) 13:52:35 437.125/150
PCSat 27 Sep 13:43:12 13:48:13 36° 55° (NE) 13:53:11 145.827
DX 1 27 Sep 13:50:42 13:54:58 57° 287° (WNW) 13:59:12 434.975-435.025
ESTCUBE 1 27 Sep 13:57:12 14:00:04 17° 295° (WNW) 14:02:56 437.505/2401.250
VELOX 1 27 Sep 13:57:37 14:01:28 30° 290° (WNW) 14:05:18 145.980
CUBEBUG 1 27 Sep 14:03:38 14:06:47 20° 293° (WNW) 14:09:56 437.445
AUBIESAT-1 27 Sep 14:08:35 14:11:41 38° 291° (WNW) 14:14:47 437.475
JAS-2 27 Sep 14:15:38 14:18:28 13° 276° (W) 14:21:27 435.910
Cosmos 2504 27 Sep 14:30:33 14:36:01 21° 69° (ENE) 14:41:41 435.465 / 435.565
TISAT 1 27 Sep 14:31:50 14:36:00 70° 102° (ESE) 14:40:08 437.305
ITAMSAT 1 27 Sep 14:35:15 14:39:40 30° 67° (ENE) 14:44:07 435.822/435.867
PHONESAT 2.4 27 Sep 14:35:51 14:38:48 67° 8° (N) 14:41:45 2401.200-2431.200
Gurwin Techsat 1B 27 Sep 14:36:26 14:41:43 76° 257° (WSW) 14:47:04 435.225
ITUPSAT 1 27 Sep 14:38:35 14:41:16 15° 92° (E) 14:43:57 437.325
AIST 2 27 Sep 14:42:01 14:44:30 15° 251° (WSW) 14:46:58 435.215
SPROUT 27 Sep 14:47:02 14:49:34 16° 294° (WNW) 14:52:06 437.525
M-CUBED/EXP-1 PRIME 27 Sep 14:47:49 14:48:27 10° 299° (WNW) 14:49:05 437.505
SWISSCUBE 27 Sep 14:50:59 14:54:48 23° 95° (E) 14:58:35 437.505
AO-7 27 Sep 14:58:40 15:06:14 41° 62° (ENE) 15:13:47 29.400- 29.500
UKube-1 27 Sep 15:00:35 15:02:47 14° 296° (WNW) 15:04:58 .
BEESAT 27 Sep 15:03:47 15:07:54 28° 96° (E) 15:11:59 436.000
Cosmos 2491 27 Sep 15:09:16 15:17:47 58° 91° (E) 15:26:22 435.465 / 435.565
YUBILEINY 27 Sep 15:16:13 15:24:54 76° 266° (W) 15:33:32 435.215
Oscar 19 27 Sep 15:25:04 15:27:11 12° 270° (W) 15:29:18 437.125/150
PCSat 27 Sep 15:26:49 15:31:28 30° 252° (WSW) 15:36:05 145.827
SO-50 27 Sep 15:36:10 15:40:56 59° 118° (ESE) 15:45:39 436.795
PHONESAT 2.4 27 Sep 16:12:04 16:14:51 37° 204° (SSW) 16:17:38 2401.200-2431.200
ITAMSAT 1 27 Sep 16:14:29 16:19:03 31° 263° (W) 16:23:38 435.822/435.867
ITUPSAT 1 27 Sep 16:14:42 16:19:25 54° 287° (WNW) 16:24:05 437.325
Cosmos 2504 27 Sep 16:22:32 16:29:56 69° 266° (W) 16:37:49 435.465 / 435.565
SWISSCUBE 27 Sep 16:28:17 16:32:37 35° 290° (WNW) 16:36:57 437.505
MOZHAYETS 4 27 Sep 16:33:03 16:37:28 42° 98° (E) 16:41:52
BEESAT 27 Sep 16:41:30 16:45:36 29° 292° (WNW) 16:49:41 436.000
AO-7 27 Sep 16:51:01 16:58:51 45° 260° (W) 17:06:43 29.400- 29.500
KKS-1 27 Sep 17:00:49 17:05:08 50° 100° (E) 17:09:26 437.445
AIST 1 27 Sep 17:06:16 17:10:35 90° 131° (SE) 17:14:49
Cosmos 2491 27 Sep 17:07:40 17:15:04 30° 290° (WNW) 17:22:33 435.465 / 435.565
GOMX 1 27 Sep 17:09:13 17:11:30 13° 63° (ENE) 17:13:44 467.674
NOAA 18 27 Sep 17:14:04 17:15:21 11° 58° (ENE) 17:16:38 137.9125
BRITE-PL 27 Sep 17:15:00 17:20:04 34° 70° (ENE) 17:25:04 437.365/2234.400
YUBILEINY 27 Sep 17:17:01 17:20:04 12° 285° (WNW) 17:23:08 435.215
HORYU 2 27 Sep 17:17:36 17:21:54 56° 73° (ENE) 17:26:14 437.375
SO-50 27 Sep 17:18:20 17:21:46 19° 315° (NW) 17:25:11 436.795
O/OREOS (USA 219) 27 Sep 17:19:51 17:24:12 39° 64° (ENE) 17:28:30 437.305
STARS 27 Sep 17:35:18 17:39:37 58° 101° (E) 17:43:54 437.465
CUBESAT XI-V 27 Sep 17:52:02 17:56:23 37° 97° (E) 18:00:42 437.345
NOAA 15 27 Sep 17:55:50 18:00:44 39° 69° (ENE) 18:05:38 137.62
Cubesat XI-IV 27 Sep 18:10:56 18:15:54 43° 70° (ENE) 18:20:54 437.490
MOZHAYETS 4 27 Sep 18:11:04 18:14:18 19° 294° (WNW) 18:17:30
CUTE-I 27 Sep 18:11:10 18:16:09 43° 70° (ENE) 18:21:09 437.470
